San Angelo, TX

9:29 AM CDT on October 23, 2017 (GMT -0500)
San Angelo Regional-Mathis

Weather History for KSJT - November, 2012

Change the Weather History Date:

Saturday, November 3, 2012

  Actual Average Record
Temperature  
Mean Temperature 69 °F 60 °F  
Max Temperature 82 °F 73 °F 88 °F (1988)
Min Temperature 55 °F 48 °F 24 °F (1951)
Degree Days  
Heating Degree Days 0 6  
Month to date heating degree days 0 18  
Since 1 July heating degree days 117 109  
Cooling Degree Days 4 1  
Month to date cooling degree days 10 4  
Year to date cooling degree days 3195 2488  
Growing Degree Days 20 (Base 50)    
Moisture  
Dew Point 56 °F    
Average Humidity 67    
Maximum Humidity 93    
Minimum Humidity 41    
Precipitation  
Precipitation 0.00 in 0.06 in 1.25 in (1990)
Month to date precipitation 0.00 0.17  
Year to date precipitation 21.78 19.43  
Snow  
Snow 0.00 in 0.00 in 0.00 in (2002)
Month to date snowfall 0.0 0.0  
Since 1 July snowfall T 0.0  
Snow Depth 0.00 in    
Sea Level Pressure  
Sea Level Pressure 30.02 in    
Wind  
Wind Speed 5 mph (SE)    
Max Wind Speed 12 mph    
Max Gust Speed 14 mph    
Visibility 10 miles    
Events Thunderstorm    
T = Trace of Precipitation, MM = Missing Value Source: NWS Daily Summary

Daily Weather History Graph

Daily Weather History Graph

Search for Another Location

Airport or City:

Trip Planner

Search our weather history database for the weather conditions in past years. The results will help you decide how hot, cold, wet, or windy it might be!

Date:

Astronomy

Nov. 03, 2012 Rise Set
Actual Time 7:59 AM CDT 6:50 PM CDT
Civil Twilight 7:34 AM CDT 7:16 PM CDT
Nautical Twilight 7:05 AM CDT 7:44 PM CDT
Astronomical Twilight 6:37 AM CDT 8:13 PM CDT
Moon 10:39 PM CDT (11/3) 11:58 AM CDT (11/3)
Length of Visible Light 11h 41m
Length of Day
10h 51m
Waning Gibbous, 80% of the Moon is Illuminated
Nov 3
Waning Gibbous
Nov 6
Last Quarter
Nov 13
New
Nov 20
First Quarter
Nov 28
Full

Hourly Weather History & Observations

Time (CDT) Temp. Heat Index Dew Point Humidity Pressure Visibility Wind Dir Wind Speed Gust Speed Precip Events Conditions
12:51 AM 64.0 °F - 53.1 °F 67% 29.92 in 10.0 mi SSW 5.8 mph - N/A   Clear
1:51 AM 63.0 °F - 54.0 °F 72% 29.93 in 10.0 mi South 6.9 mph - N/A   Clear
2:51 AM 64.0 °F - 54.0 °F 70% 29.92 in 10.0 mi South 10.4 mph - N/A   Clear
3:51 AM 64.0 °F - 55.0 °F 73% 29.91 in 10.0 mi South 10.4 mph - N/A   Clear
4:51 AM 63.0 °F - 55.9 °F 78% 29.93 in 10.0 mi South 10.4 mph - N/A   Clear
5:51 AM 62.1 °F - 55.9 °F 80% 29.94 in 10.0 mi SSW 8.1 mph - N/A   Clear
6:51 AM 57.0 °F - 55.0 °F 93% 29.97 in 10.0 mi Calm Calm - N/A   Clear
7:51 AM 60.1 °F - 57.0 °F 90% 30.00 in 10.0 mi South 4.6 mph - N/A   Clear
8:51 AM 60.1 °F - 55.9 °F 86% 30.03 in 10.0 mi Calm Calm - N/A   Clear
9:51 AM 64.0 °F - 59.0 °F 84% 30.07 in 10.0 mi Calm Calm - N/A   Scattered Clouds
10:00 AM 64.4 °F - 59.0 °F 83% 30.11 in 10.0 mi Calm Calm - N/A   Mostly Cloudy
10:24 AM 66.2 °F - 60.8 °F 83% 30.11 in 10.0 mi ESE 5.8 mph - N/A   Scattered Clouds
10:51 AM 68.0 °F - 60.1 °F 76% 30.06 in 10.0 mi ESE 4.6 mph - N/A   Clear
11:51 AM 71.1 °F - 60.1 °F 68% 30.07 in 10.0 mi Calm Calm - N/A   Clear
1:51 PM 78.1 °F - 61.0 °F 56% 30.02 in 10.0 mi SSE 5.8 mph - N/A   Clear
2:51 PM 80.1 °F 80.7 °F 59.0 °F 48% 29.99 in 10.0 mi Calm Calm - N/A   Partly Cloudy
3:51 PM 79.0 °F - 60.1 °F 52% 29.96 in 10.0 mi NW 6.9 mph - N/A   Partly Cloudy
4:38 PM 78.8 °F - 60.8 °F 54% 30.01 in 10.0 mi North 9.2 mph - N/A Thunderstorm Clear
4:51 PM 80.1 °F 80.4 °F 57.0 °F 45% 29.96 in 10.0 mi North 9.2 mph - N/A   Clear
5:51 PM 73.9 °F - 48.0 °F 40% 29.98 in 10.0 mi ESE 8.1 mph - N/A   Clear
6:51 PM 70.0 °F - 50.0 °F 49% 30.01 in 10.0 mi ENE 8.1 mph - N/A   Clear
7:51 PM 66.9 °F - 53.1 °F 61% 30.04 in 10.0 mi East 6.9 mph - N/A   Clear
8:52 PM 63.0 °F - 54.0 °F 72% 30.06 in - NE 5.8 mph - N/A   Unknown
9:51 PM 63.0 °F - 53.1 °F 70% 30.07 in 10.0 mi ENE 5.8 mph - N/A   Partly Cloudy
10:51 PM 62.1 °F - 53.1 °F 72% 30.10 in 10.0 mi Calm Calm - N/A   Mostly Cloudy
11:20 PM 64.4 °F - 53.6 °F 68% 30.15 in 10.0 mi West 5.8 mph - N/A Thunderstorm Mostly Cloudy
11:35 PM 62.6 °F - 53.6 °F 72% 30.14 in 10.0 mi Calm Calm - N/A   Mostly Cloudy
11:51 PM 62.1 °F - 54.0 °F 75% 30.09 in 10.0 mi ENE 4.6 mph - N/A   Partly Cloudy